sat.trackr.live / text

‹ back to catalog

UNKNOWN

NORAD 89484

UNKNOWN UNKNOWN UNKNOWN

§ Identity

Operator
Country
Launch date
Launch site
Launch vehicle
Mass (kg)
RCS (m²)

External: N2YO · Heavens-Above

§ Orbital elements

Epoch: 2026-08-26T06:23:11.444352Z

Period
125.00 min
Inclination
83.6916°
Eccentricity
0.1911401
Mean motion
11.51993930 rev/d
Perigee alt
320.3 km
Apogee alt
3,486.1 km
Semi-major
8,281.4 km
B*
7.8765e-2
RAAN
69.9601°
Arg perigee
12.2000°
Mean anomaly
351.9258°
Rev number
38,019

§ Raw data

UNKNOWN1 89484U          26238.26610468  .01435267  00000+0  78765-1 0  99982 89484  83.6916  69.9601 1911401  12.2000 351.9258 11.51993930380196

JSON: /api/v1/satellites/89484 · /tle

For live sub-satellite position, see the globe view (requires WebGL).

§ Visibility from observer

Set your observer location to see the next 7 days of passes ≥ 10°. The values pass through the URL so the page stays shareable.

No JS? Fill the form by hand. The geolocation button needs JavaScript.